This demonstration page uses our WeatherBlox Daily Observations layout. Learn more.

Left ArrowRight Arrow

41.86663, -103.66717

Hourly Observations for January 11, 2015

Temp ( °F °C ) Dew Point ( °F °C ) Humidity (%) Winds ( mph kmh ) Pressure ( in mb ) Visibility ( mi km ) Precip ( " mm )
12:53 am 00:53 Clear 20 -6.7 17 -8.3 89 89 ESE 5 7 30.00 1016 8 13 0.00 0.00
1:53 am 01:53 Clear 20 -6.7 16 -8.9 85 85 ESE 8 13 29.99 1016 7 11 0.00 0.00
2:53 am 02:53 Clear with Mist and Fog 17 -8.3 14 -10 88 88 SSE 3 6 30.00 1016 6 10 0.00 0.00
3:53 am 03:53 Clear with Mist and Fog 19 -7.2 17 -8.3 92 92 Calm 29.99 1016 6 10 0.00 0.00
4:53 am 04:53 Clear with Mist and Fog 18 -7.8 16 -8.9 92 92 W 5 7 30.00 1016 5 8 0.00 0.00
5:53 am 05:53 Clear with Mist and Fog 18 -7.8 16 -8.9 92 92 WNW 6 9 30.02 1017 5 8 0.00 0.00
6:53 am 06:53 Clear with Mist and Fog 17 -8.3 14 -10 88 88 WNW 6 9 30.04 1017 5 8 0.00 0.00
7:53 am 07:53 Sunny with Mist and Fog 18 -7.8 15 -9.4 88 88 WNW 8 13 30.05 1018 5 8 0.00 0.00
8:53 am 08:53 Sunny with Mist and Fog 20 -6.7 17 -8.3 89 89 NW 9 15 30.11 1020 6 10 0.00 0.00
9:53 am 09:53 Hazy 25 -3.9 20 -6.7 81 81 WNW 12 19 30.12 1020 6 10 0.00 0.00
10:53 am 10:53 Sunny 28 -2.2 23 -5 81 81 WNW 8 13 30.15 1021 8 13 0.00 0.00
11:53 am 11:53 Sunny 33 0.6 26 -3.3 75 75 W 3 6 30.14 1021 10 16 0.00 0.00
12:53 pm 12:53 Partly Cloudy 35 1.7 24 -4.4 64 64 N 12 19 30.15 1021 10 16 0.00 0.00
1:53 pm 13:53 Cloudy 30 -1.1 22 -5.6 72 72 NNE 16 26 30.20 1023 9 14 0.00 0.00
2:05 pm 14:05 Cloudy with Light Snow 29 -1.7 23 -5 78 78 NNE 17 28 30.24 1024 2 3 0.00 0.03
2:35 pm 14:35 Cloudy with Light Snow 27 -2.8 23 -5 85 85 NNE 17 28 30.30 1026 1 2 0.00 0.03
2:53 pm 14:53 Cloudy with Light Snow 27 -2.8 22 -5.6 81 81 NNE 14 22 30.25 1025 2 3 0.00 0.03
3:23 pm 15:23 Cloudy with Light Snow 26 -3.3 21 -6.1 81 81 NNE 15 24 30.30 1026 4 6 0.01 0.25
3:53 pm 15:53 Cloudy with Haze 25 -3.9 19 -7.2 78 78 NNE 15 24 30.29 1026 6 10 0.01 0.25
4:09 pm 16:09 Cloudy with Light Snow 24 -4.4 19 -7.2 81 81 NNE 14 22 30.36 1028 3 4 0.00 0.03
4:22 pm 16:22 Cloudy with Light Snow 25 -4 19 -7 80 80 NNE 10 17 30.36 1028 3 5 0.00 0.00
4:53 pm 16:53 Cloudy 24 -4.4 17 -8.3 75 75 NNE 10 17 30.34 1028 10 16 0.00 0.03
5:53 pm 17:53 Cloudy 22 -5.6 15 -9.4 75 75 NE 8 13 30.37 1029 10 16 0.00 0.00
6:32 pm 18:32 Cloudy 21 -6 16 -9 80 80 ENE 7 11 30.45 1031 10 16 0.00 0.00
6:53 pm 18:53 Cloudy 22 -5.6 16 -8.9 78 78 ENE 6 9 30.41 1030 10 16 0.00 0.00
7:42 pm 19:42 Cloudy 19 -7 16 -9 86 86 E 10 17 30.53 1034 10 16 0.00 0.00
7:53 pm 19:53 Cloudy 20 -6.7 16 -8.9 85 85 ENE 8 13 30.45 1031 10 16 0.00 0.00
8:53 pm 20:53 Cloudy 20 -6.7 15 -9.4 81 81 E 5 7 30.48 1032 10 16 0.00 0.00
9:18 pm 21:18 Cloudy 19 -7 16 -9 86 86 ESE 3 6 30.56 1035 10 16 0.00 0.00
9:53 pm 21:53 Cloudy with Light Snow 20 -6.7 16 -8.9 85 85 Calm 30.48 1032 2 3 0.00 0.03
10:00 pm 22:00 Cloudy with Light Snow 19 -7 16 -9 86 86 Calm 30.59 1036 2 3 0.00 0.00
10:05 pm 22:05 Cloudy with Light Snow 20 -6.7 16 -8.9 85 85 E 3 6 30.59 1036 2 3 0.00 0.03
10:15 pm 22:15 Cloudy with Light Snow 19 -7.2 16 -8.9 88 88 ESE 5 7 30.59 1036 3 5 0.00 0.03
10:23 pm 22:23 Cloudy with Light Snow 19 -7.2 16 -8.9 88 88 ESE 3 6 30.59 1036 3 4 0.01 0.25
10:39 pm 22:39 Cloudy with Light Snow 19 -7.2 16 -8.9 88 88 Calm 30.59 1036 4 6 0.01 0.25
10:53 pm 22:53 Cloudy with Light Snow 19 -7.2 15 -9.4 84 84 ENE 6 9 30.49 1033 2 3 0.01 0.25
11:08 pm 23:08 Cloudy with Light Snow 19 -7 16 -9 86 86 E 5 7 30.59 1036 2 3 0.00 0.00
11:25 pm 23:25 Cloudy with Light Snow 18 -7.8 15 -9.4 88 88 E 6 9 30.62 1037 2 3 0.01 0.25
11:28 pm 23:28 Cloudy with Light Snow 18 -8 16 -9 93 93 E 6 9 30.62 1037 2 3 0.00 0.00
11:53 pm 23:53 Cloudy with Light Snow 18 -7.8 15 -9.4 88 88 E 3 6 30.48 1032 2 2 0.02 0.51

Powered by AerisWeather